Yamba Observation History
Time Wind Speed Temp Pressure Rel. Hum Rain
25/02:30pm NNE 9-17 kts 29.4°c 1010.3 hPa 61% 0.0mm
25/02:00pm NNE 8-14 kts 29.4°c 1010.7 hPa 61% 0.0mm
25/01:30pm NNE 8-14 kts 29.3°c 1011.2 hPa 63% 0.0mm
25/01:00pm NE 7-11 kts 28.4°c 1011.6 hPa 62% 0.0mm
25/12:30pm NE 7-11 kts 28.7°c 1011.8 hPa 62% 0.0mm
25/12:00pm NNE 6-10 kts 28.8°c 1012.0 hPa 63% 0.0mm
25/11:30am NNE 6-9 kts 28.8°c 1012.3 hPa 65% 0.0mm
25/11:00am NNE 5-7 kts 28.2°c 1012.5 hPa 65% 0.0mm
25/10:30am NNE 5-7 kts 28.3°c 1012.7 hPa 65% 0.0mm
25/10:00am NE 5-6 kts 27.7°c 1013.0 hPa 66% 0.0mm
25/09:30am NNE 5-8 kts 27.4°c 1013.1 hPa 65% 0.0mm
25/09:00am NNW 4-6 kts 26.2°c 1013.1 hPa 71% 0.0mm
25/08:30am NW 4-5 kts 25.3°c 1013.0 hPa 74% 0.0mm
25/08:00am NW 5-7 kts 23.9°c 1013.1 hPa 80% 0.0mm
25/07:30am WNW 5-6 kts 23.0°c 1012.9 hPa 83% 0.0mm
25/07:00am WNW 6-7 kts 22.0°c 1012.7 hPa 87% 0.0mm
25/06:30am NW 5-7 kts 21.8°c 1012.5 hPa 88% 0.0mm
25/06:00am NNW 6-7 kts 22.1°c 1012.2 hPa 86% 0.0mm
25/05:30am NNW 5-7 kts 22.1°c 1012.1 hPa 88% 0.0mm
25/05:00am NW 5-7 kts 21.8°c 1011.8 hPa 88% 0.0mm
25/04:30am WNW 5-7 kts 21.8°c 1011.8 hPa 87% 0.0mm
25/04:00am W 5 kts 21.8°c 1011.9 hPa 88% 0.0mm
25/03:30am WNW 5-6 kts 21.6°c 1011.9 hPa 87% 0.0mm
25/03:00am NW 5-6 kts 21.6°c 1011.9 hPa 86% 0.0mm
25/02:30am NW 4-5 kts 21.8°c 1012.3 hPa 86% 0.0mm
25/02:00am NW 5-6 kts 22.4°c 1012.7 hPa 84% 0.0mm
25/01:30am NNW 5-7 kts 23.2°c 1012.9 hPa 82% 0.0mm
25/01:00am N 5-8 kts 23.4°c 1013.2 hPa 79% 0.0mm
25/12:30am NNE 5-10 kts 23.7°c 1013.4 hPa 77% 0.0mm
25/12:00am NNE 7-13 kts 23.7°c 1013.5 hPa 76% 0.0mm
Time Wind Speed Temp Pressure Rel. Hum Rain
24/11:30pm NNE 7-14 kts 23.9°c 1013.8 hPa 76% 0.0mm
24/11:00pm NNE 7-11 kts 24.1°c 1014.1 hPa 76% 0.0mm
24/10:30pm NNE 7-13 kts 23.9°c 1014.0 hPa 74% 0.0mm
24/10:00pm NNE 8-14 kts 24.1°c 1014.0 hPa 75% 0.0mm
24/09:30pm NNE 8-13 kts 24.2°c 1013.9 hPa 73% 0.0mm
24/09:00pm NE 8-14 kts 24.3°c 1013.8 hPa 73% 0.0mm
24/08:30pm NE 9-15 kts 24.2°c 1013.5 hPa 73% 0.0mm
24/08:00pm NE 9-16 kts 24.3°c 1013.3 hPa 74% 0.0mm
24/07:30pm NE 8-14 kts 24.8°c 1013.1 hPa 74% 0.0mm
24/07:00pm NE 7-11 kts 25.8°c 1012.9 hPa 69% 0.0mm
24/06:30pm NE 8-15 kts 26.0°c 1012.6 hPa 66% 0.0mm
24/06:00pm NE 8-13 kts 26.4°c 1012.6 hPa 65% 0.0mm
24/05:30pm NE 8-14 kts 26.6°c 1012.5 hPa 64% 0.0mm
24/05:00pm NE 8-13 kts 26.9°c 1012.6 hPa 63% 0.0mm
24/04:30pm NE 7-12 kts 27.8°c 1012.8 hPa 63% 0.0mm
24/04:00pm NE 7-13 kts 27.7°c 1013.0 hPa 64% 0.0mm
24/03:30pm ENE 7-11 kts 27.8°c 1013.4 hPa 61% 0.0mm
24/03:00pm ENE 7-11 kts 28.4°c 1013.6 hPa 60% 0.0mm
24/02:30pm NE 7-12 kts 28.7°c 1014.0 hPa 59% 0.0mm
24/02:00pm NE 6-10 kts 28.1°c 1014.4 hPa 58% 0.0mm
24/01:30pm NNE 6-9 kts 29.0°c 1014.8 hPa 59% 0.0mm
24/01:00pm ENE 7-11 kts 26.8°c 1015.1 hPa 64% 0.0mm
24/12:30pm E 7-11 kts 26.2°c 1015.4 hPa 67% 0.0mm
24/12:00pm ENE 6-7 kts 26.6°c 1015.7 hPa 64% 0.0mm
24/11:30am E 5-7 kts 25.9°c 1016.0 hPa 61% 0.0mm
24/11:00am NE 3-5 kts 26.5°c 1016.1 hPa 58% 0.0mm
24/10:30am NNW 3-5 kts 26.2°c 1016.0 hPa 59% 0.0mm
24/10:00am WNW 4-6 kts 25.2°c 1016.2 hPa 60% 0.0mm
24/09:30am W 4-6 kts 23.9°c 1016.2 hPa 74% 0.0mm
24/09:00am WSW 4-6 kts 22.7°c 1016.1 hPa 78% 0.0mm
24/08:30am W 4-6 kts 22.1°c 1016.0 hPa 80% 0.0mm
24/08:00am W 5-7 kts 21.5°c 1016.0 hPa 85% 0.0mm
24/07:30am WSW 4-6 kts 20.8°c 1015.9 hPa 87% 0.0mm
24/07:00am WSW 5-6 kts 20.2°c 1015.6 hPa 88% 0.0mm
24/06:30am WSW 4-7 kts 20.0°c 1015.2 hPa 89% 0.0mm
24/06:00am WSW 4-5 kts 20.5°c 1015.0 hPa 89% 0.0mm
24/05:30am WSW 4-6 kts 20.8°c 1014.7 hPa 86% 0.0mm
24/05:00am WSW 5-7 kts 20.4°c 1014.3 hPa 87% 0.0mm
24/04:30am WSW 5-7 kts 20.6°c 1014.3 hPa 88% 0.0mm
24/04:00am WSW 5-7 kts 20.4°c 1014.5 hPa 86% 0.0mm
24/03:30am WSW 5-7 kts 20.8°c 1014.8 hPa 82% 0.0mm
24/03:00am W 6 kts 20.5°c 1015.0 hPa 84% 0.0mm
24/02:30am W 5-7 kts 21.0°c 1015.3 hPa 85% 0.0mm
24/02:00am NNE 3-5 kts 22.0°c 1015.3 hPa 75% 0.0mm
24/01:30am NNE 4-8 kts 22.3°c 1015.5 hPa 71% 0.0mm
24/01:00am NNE 5-8 kts 22.4°c 1015.6 hPa 72% 0.0mm
24/12:30am NNE 5-9 kts 22.6°c 1015.9 hPa 74% 0.0mm
24/12:00am NNE 6-10 kts 22.8°c 1016.2 hPa 73% 0.0mm
Time Wind Speed Temp Pressure Rel. Hum Rain
23/11:30pm NE 6-11 kts 23.0°c 1016.4 hPa 72% 0.0mm
23/11:00pm NE 6-9 kts 23.2°c 1016.4 hPa 72% 0.0mm
23/10:30pm NNE 5-9 kts 23.1°c 1016.2 hPa 74% 0.0mm
23/10:00pm NE 6-9 kts 23.3°c 1016.0 hPa 74% 0.0mm
23/09:30pm ENE 6-10 kts 23.6°c 1015.8 hPa 73% 0.0mm
23/09:00pm NE 6-10 kts 23.7°c 1015.7 hPa 73% 0.0mm
23/08:30pm NE 6-9 kts 23.7°c 1015.4 hPa 73% 0.0mm
23/08:00pm NE 6-10 kts 23.9°c 1015.2 hPa 72% 0.0mm
23/07:30pm NE 6-11 kts 24.2°c 1014.9 hPa 70% 0.0mm
23/07:00pm NE 7-13 kts 25.3°c 1014.6 hPa 68% 0.0mm
23/06:30pm NE 7-11 kts 25.9°c 1014.4 hPa 66% 0.0mm
23/06:00pm ENE 7-11 kts 26.3°c 1014.2 hPa 61% 0.0mm
23/05:30pm NE 7-13 kts 26.5°c 1014.0 hPa 60% 0.0mm
23/05:00pm ENE 7-13 kts 27.1°c 1013.9 hPa 62% 0.0mm
23/04:30pm ENE 7-11 kts 27.2°c 1014.0 hPa 62% 0.0mm
23/04:00pm ENE 7-12 kts 27.4°c 1014.0 hPa 61% 0.0mm
23/03:30pm ENE 7-11 kts 27.9°c 1014.1 hPa 61% 0.0mm
23/03:00pm NE 6-11 kts 28.4°c 1014.3 hPa 63% 0.0mm
23/02:30pm NE 7-11 kts 28.0°c 1014.3 hPa 60% 0.0mm
23/02:00pm ENE 9-14 kts 27.6°c 1014.4 hPa 62% 0.0mm
23/01:30pm ENE 7-11 kts 28.2°c 1014.5 hPa 62% 0.0mm
23/01:00pm NE 7-11 kts 28.1°c 1014.7 hPa 63% 0.0mm
23/12:30pm NE 7-11 kts 27.9°c 1015.0 hPa 63% 0.0mm
23/12:00pm NE 6-9 kts 27.9°c 1015.0 hPa 67% 0.0mm
23/11:30am ENE 7-9 kts 27.0°c 1015.0 hPa 66% 0.0mm
23/11:00am NE 5-8 kts 27.4°c 1015.2 hPa 67% 0.0mm
23/10:30am NNE 6-8 kts 27.2°c 1015.0 hPa 64% 0.0mm
23/10:00am NE 3-6 kts 26.2°c 1014.9 hPa 70% 0.0mm
23/09:30am NE 3-5 kts 25.5°c 1015.0 hPa 74% 0.0mm
23/09:00am NNW 3-5 kts 24.0°c 1015.1 hPa 71% 0.0mm
23/08:30am NW 3-4 kts 22.9°c 1015.0 hPa 75% 0.0mm
23/08:00am NNW 4-5 kts 21.9°c 1014.6 hPa 78% 0.0mm
23/07:30am NW 4-5 kts 21.1°c 1014.3 hPa 83% 0.0mm
23/07:00am NNW 4-5 kts 20.3°c 1013.9 hPa 86% 0.0mm
23/06:30am NW 5-6 kts 19.9°c 1013.6 hPa 87% 0.0mm
23/06:00am NW 5-6 kts 19.9°c 1013.4 hPa 85% 0.0mm
23/05:30am WNW 5-7 kts 19.9°c 1013.1 hPa 87% 0.0mm
23/05:00am NW 4-6 kts 20.3°c 1012.8 hPa 86% 0.0mm
23/04:30am NNW 5-7 kts 20.9°c 1012.6 hPa 83% 0.0mm
23/04:00am NNW 7-8 kts 21.1°c 1012.6 hPa 79% 0.0mm
23/03:30am NNW 7-10 kts 21.5°c 1012.6 hPa 76% 0.0mm
23/03:00am N 7-9 kts 21.4°c 1012.7 hPa 75% 0.0mm
23/02:30am NNW 7-10 kts 21.6°c 1012.8 hPa 76% 0.0mm
23/02:00am NNW 7-10 kts 21.5°c 1013.0 hPa 78% 0.0mm
23/01:30am N 6-10 kts 21.5°c 1013.1 hPa 77% 0.0mm
23/01:00am N 7-9 kts 21.8°c 1013.3 hPa 78% 0.0mm
23/12:30am N 6-12 kts 22.1°c 1013.3 hPa 79% 0.0mm
23/12:00am N 5-8 kts 22.7°c 1013.3 hPa 82% 0.0mm